Theta_e
313 313 318 325 327 325 324 323 322 322 323 321 320 321 321 321 322 326 320 327 321 337 341 334 339 337 337 333 333 332 332 331 331 333 335 335 335 329 329 324 321 324 318 317 313 311 309 307 308
316 318 322 324 325 324 323 322 322 321 321 320 321 321 322 321 322 324 327 321 323 337 341 338 341 340 334 331 333 332 332 332 334 334 335 335 335 332 329 325 323 320 319 316 313 311 308 306 305
319 320 325 325 323 322 322 321 321 320 320 320 321 321 321 321 322 323 321 320 325 335 341 342 338 341 336 332 333 333 333 333 335 334 335 335 335 332 330 325 321 318 318 315 312 310 308 306 305
320 322 321 324 321 321 320 320 319 320 320 320 320 321 320 322 324 321 320 321 333 333 340 340 338 339 337 334 332 332 333 335 334 335 335 335 335 332 331 323 313 316 316 314 311 310 307 305 305
319 321 323 322 321 320 319 319 319 320 320 319 319 320 320 320 325 321 321 327 334 335 339 337 334 337 338 337 336 336 336 336 335 334 334 334 333 332 330 322 314 314 314 312 311 309 306 305 305
321 319 322 322 321 320 320 319 319 320 319 318 318 318 320 319 322 321 329 331 334 335 335 337 332 334 337 339 338 337 337 336 335 334 334 334 333 333 329 325 319 313 313 312 310 309 306 304 305
320 319 319 320 321 321 320 318 319 319 318 318 318 319 319 318 316 318 319 325 325 329 325 336 332 332 335 337 337 337 337 336 335 334 334 333 333 333 329 326 325 321 316 313 312 309 307 304 304
319 319 318 318 319 320 319 318 318 318 318 316 317 318 319 316 314 316 319 322 330 326 333 335 338 336 335 335 336 336 336 336 335 334 334 333 333 332 329 326 325 325 322 321 317 313 309 305 303
314 318 319 318 318 319 318 318 316 316 317 316 315 316 315 314 314 316 320 320 321 320 324 331 334 328 334 336 335 335 335 335 335 333 333 333 332 331 328 326 327 326 324 323 321 321 316 311 306
318 319 318 316 317 318 318 318 318 317 317 317 315 314 313 313 313 315 317 318 317 318 320 322 327 324 327 332 334 334 333 333 333 333 333 332 331 330 327 326 325 325 324 323 323 322 320 319 313
318 318 316 315 316 317 318 317 317 317 318 317 317 315 312 312 312 313 313 314 315 316 318 319 321 322 325 328 333 333 332 333 333 333 332 332 330 327 327 326 325 325 324 323 323 322 321 320 319
318 317 316 316 315 316 317 317 317 316 316 313 312 312 311 311 311 311 312 312 313 313 314 315 317 320 324 328 330 332 332 332 332 332 332 331 330 328 327 326 324 324 324 323 322 321 321 320 318
317 317 316 316 316 316 316 316 317 316 313 311 311 311 310 310 311 312 312 313 313 313 313 313 313 316 325 332 330 329 330 330 330 329 330 329 328 328 326 325 328 327 325 323 322 322 321 319 318
316 316 316 316 315 315 315 316 314 314 311 310 310 309 309 309 310 310 311 312 313 314 314 313 312 313 327 329 330 329 328 328 329 330 328 328 327 327 326 327 327 324 324 322 321 320 319 318 317
315 316 318 318 317 316 314 316 315 313 311 311 310 309 308 308 309 310 311 312 313 313 314 313 313 318 330 330 329 328 327 326 327 326 326 326 326 325 325 327 326 324 323 322 320 319 318 318 316
317 318 320 319 316 315 315 321 317 312 311 312 311 309 307 307 307 309 311 313 313 314 315 314 320 327 327 329 327 326 325 324 325 326 326 326 326 325 324 323 322 321 319 317 316 316 315 315 314
318 320 321 321 316 316 316 321 314 311 312 313 312 310 308 306 305 308 310 313 315 317 318 322 322 325 327 327 326 325 323 323 323 323 323 323 322 320 319 318 317 316 315 315 313 312 310 307 306
321 321 320 320 318 315 317 318 315 312 311 312 312 309 308 306 304 307 311 314 318 318 320 320 322 325 326 326 325 323 321 321 320 319 319 317 316 315 315 314 313 310 308 307 306 306 305 304 303
320 320 320 320 318 316 318 319 319 313 312 313 311 309 307 305 302 307 313 315 318 318 318 320 322 324 324 323 322 321 319 318 317 316 315 314 312 310 308 307 306 305 304 303 301 299 298 298 298
319 319 319 320 318 314 317 318 319 317 313 312 311 309 307 303 302 304 312 315 317 318 319 320 321 321 320 319 318 318 317 316 313 308 306 304 303 302 301 299 298 297 296 296 296 296 295 294 294
317 318 319 319 318 315 316 318 319 318 312 309 308 307 305 303 302 302 306 314 315 316 317 317 317 317 318 318 317 316 309 305 302 301 300 299 298 297 297 296 295 294 293 293 292 292 292 291 291
318 318 316 317 317 319 318 322 322 320 311 308 306 305 304 302 301 300 301 307 312 313 314 315 315 315 313 309 305 303 301 299 296 296 295 295 294 293 293 293 292 292 292 291 290 289 289 289 289
317 315 315 316 317 319 320 320 320 317 313 311 307 304 303 301 299 299 298 303 307 309 310 310 310 307 304 302 301 300 298 296 295 294 294 293 292 292 291 290 290 290 290 289 289 289 289 288 288
313 314 314 314 317 322 320 321 322 319 316 313 307 304 302 300 298 296 296 299 301 301 301 301 300 299 298 297 296 296 296 294 293 292 292 291 290 290 290 290 289 289 288 288 288 288 288 287 287
314 316 321 323 320 322 317 322 322 318 312 312 307 304 301 299 296 294 295 296 297 297 296 296 296 295 295 295 295 294 294 293 292 291 290 290 290 289 289 289 288 288 288 287 287 287 287 287 287
315 317 323 328 325 323 312 318 320 309 309 309 306 303 301 298 296 294 293 294 294 295 294 294 295 295 294 294 294 293 292 291 291 290 290 289 288 288 288 288 288 288 287 287 287 287 287 286 285
316 318 318 318 311 318 319 316 311 307 307 307 305 302 300 297 295 293 292 293 293 293 293 293 294 293 293 292 292 291 291 291 290 289 288 288 288 288 287 288 287 287 287 287 286 286 285 284 284
316 315 316 318 324 325 323 321 320 310 308 306 305 302 300 297 295 293 292 292 293 293 293 293 293 293 292 292 291 290 290 289 288 288 288 288 288 288 287 287 287 287 286 286 284 284 284 283 283
313 315 316 318 319 324 324 321 316 316 310 307 305 303 300 297 295 293 292 292 292 292 292 292 291 291 291 290 290 289 289 288 288 288 288 288 288 287 287 286 286 286 285 284 283 283 283 283 282
315 316 316 319 319 317 319 321 309 311 311 307 305 303 300 298 295 294 293 292 291 291 291 291 290 290 290 290 289 289 288 288 288 288 288 288 287 287 286 285 285 284 283 283 283 283 282 282 282
Wind_Speed
1 1 3 1 5 4 4 4 2 3 2 6 4 6 8 10 9 4 2 2 4 13 16 16 14 13 10 9 8 8 7 7 6 7 7 4 4 8 10 12 12 6 6 7 7 7 7 6 6
3 4 1 3 5 6 5 5 4 6 5 3 2 1 1 11 10 6 3 0 5 13 15 16 14 12 11 8 10 9 8 6 6 7 6 3 5 8 11 13 11 6 5 6 7 7 7 6 5
3 2 3 3 3 3 4 3 6 5 3 1 1 3 4 8 9 4 2 2 6 11 14 15 15 13 11 8 9 8 6 6 6 5 5 5 3 8 10 13 12 5 4 6 7 7 6 6 6
1 2 4 6 3 3 3 4 4 5 3 2 1 7 7 7 3 2 4 4 7 9 13 16 14 13 11 10 9 8 7 6 6 5 5 5 2 6 10 13 11 6 4 6 7 7 6 5 6
2 4 4 3 3 4 3 4 3 3 4 4 1 4 6 6 6 5 6 6 6 8 10 13 15 12 11 10 10 9 8 7 6 6 6 3 1 5 9 11 11 8 6 6 7 6 5 5 5
4 3 5 6 6 5 3 4 3 3 3 5 2 5 6 4 4 5 6 5 6 7 10 9 14 13 13 10 8 8 8 7 6 5 5 2 1 3 6 8 11 9 6 6 7 6 5 4 4
4 4 5 3 5 6 5 3 6 5 4 4 1 4 7 5 2 2 3 3 5 5 7 9 12 12 12 11 9 8 8 7 7 6 5 3 1 1 5 6 7 8 7 6 6 6 5 5 4
2 3 3 4 6 6 6 6 3 5 5 3 0 4 8 4 1 3 3 3 4 5 6 7 10 14 10 11 12 10 9 8 8 7 6 5 4 2 3 4 7 10 7 7 7 6 5 4 3
0 4 5 3 5 5 6 7 5 2 3 2 1 1 3 6 5 3 3 3 3 7 8 8 8 15 16 12 12 12 11 9 9 9 8 6 5 2 2 5 6 8 11 12 9 9 9 6 4
4 4 1 1 2 4 7 5 5 5 8 7 3 2 5 7 5 3 4 5 5 9 11 11 10 13 16 17 12 13 12 11 11 10 9 8 6 4 2 5 7 9 9 10 13 14 10 9 7
1 5 3 4 3 2 5 6 5 7 9 4 5 2 4 2 4 5 6 8 11 12 13 14 14 13 15 17 14 12 14 11 10 9 9 8 7 5 4 6 7 8 9 10 11 13 16 13 9
6 4 3 2 3 3 6 4 6 8 1 3 3 3 2 1 2 5 6 7 8 10 14 16 17 16 15 14 17 16 17 18 13 10 9 10 6 4 3 5 6 8 9 11 12 12 17 19 12
7 3 4 5 5 7 5 10 10 8 4 5 5 4 2 2 2 3 3 5 6 8 10 13 14 17 15 15 19 20 18 16 15 13 10 10 8 7 6 6 5 6 10 9 10 12 17 22 15
3 4 7 7 11 9 8 12 3 7 7 6 5 4 4 2 2 2 3 5 7 9 10 10 8 17 21 21 19 17 16 16 16 13 15 11 7 6 6 8 8 3 3 5 8 11 16 20 19
4 7 10 14 15 9 10 10 12 9 10 8 7 4 3 2 2 3 4 6 8 9 9 9 13 18 22 21 19 16 14 13 13 9 8 10 9 7 8 6 6 4 6 6 9 11 15 19 20
5 5 9 6 8 5 10 11 10 12 12 10 8 5 3 2 2 3 4 6 5 5 6 8 12 19 22 22 19 15 12 10 9 9 8 7 6 6 7 1 3 1 4 5 8 11 14 17 17
9 11 10 6 12 6 12 6 10 12 13 13 10 8 6 3 1 3 4 5 3 4 7 13 17 21 23 21 18 16 15 12 11 10 9 8 6 4 2 2 3 4 7 8 10 11 12 12 13
11 14 11 12 7 10 11 15 10 12 16 17 14 11 8 6 4 5 4 4 5 8 12 16 20 22 22 21 20 18 14 14 12 10 9 8 6 3 1 2 3 5 7 8 7 8 10 13 17
13 13 15 11 3 6 14 16 14 17 15 17 16 13 11 8 6 7 8 9 11 13 15 19 23 26 26 25 23 19 17 15 12 11 8 7 7 7 7 7 7 7 7 9 10 12 13 16 19
17 16 16 14 6 5 15 19 17 15 20 20 17 15 13 10 9 9 12 13 15 17 21 23 26 27 26 24 21 17 14 12 15 17 17 16 14 13 12 11 10 10 11 11 13 15 17 19 23
16 18 15 17 4 11 14 22 23 21 14 11 13 14 13 14 13 12 14 17 18 20 23 25 25 23 18 15 15 16 21 23 21 19 16 14 11 9 8 8 10 11 14 17 18 19 19 20 20
17 16 16 15 8 10 3 12 10 12 14 15 17 17 16 15 14 14 16 19 21 22 22 22 21 20 21 22 25 25 24 23 20 17 15 13 11 11 11 12 13 13 14 15 20 22 22 22 23
10 2 8 11 13 16 19 9 7 4 13 19 21 20 19 18 17 17 17 20 22 23 23 24 25 26 26 24 22 21 20 18 16 14 11 11 11 11 11 12 14 14 16 18 19 21 23 24 23
10 7 3 3 7 12 16 16 13 11 11 14 21 24 24 22 19 18 19 23 25 26 27 28 28 27 24 22 20 17 16 15 14 13 10 9 9 9 10 11 13 17 19 21 23 24 25 27 27
13 8 4 5 6 9 2 13 16 6 5 11 23 28 28 27 25 23 25 26 28 28 28 27 25 25 22 20 18 16 15 14 12 10 8 6 7 9 13 15 18 20 22 24 24 25 27 30 31
20 18 8 6 7 5 1 9 6 5 6 8 23 28 28 27 25 25 27 29 30 30 29 27 25 23 20 18 17 15 14 11 9 7 6 7 10 13 14 16 18 18 21 22 24 25 27 30 31
12 16 9 2 1 4 7 11 3 6 7 14 25 29 30 29 28 27 27 28 29 28 26 25 23 22 20 18 16 14 11 8 7 6 6 8 9 10 14 15 15 17 18 23 26 29 30 33 33
11 11 6 4 6 7 8 12 9 10 14 15 22 30 32 31 30 30 30 30 30 29 27 25 22 21 20 17 13 11 9 7 6 5 4 6 8 9 11 15 16 18 21 26 30 32 33 35 36
8 13 9 6 8 3 4 5 4 10 18 21 22 32 35 35 34 33 32 31 32 29 28 27 25 23 20 16 13 10 8 6 4 1 4 6 8 10 12 16 20 22 26 29 32 34 35 36 37
21 14 20 6 6 6 3 7 4 4 12 21 24 29 31 33 33 33 34 32 31 30 28 27 26 23 20 17 14 10 7 5 2 3 5 7 10 13 15 18 22 25 27 30 33 36 37 37 38
Wind_Direction
7 81 122 293 230 240 135 107 53 104 124 44 34 5 43 36 19 42 94 165 151 159 173 179 169 175 174 170 167 159 150 140 134 130 134 122 70 69 37 29 29 26 28 36 38 40 49 57 68
75 112 84 267 251 189 121 120 136 65 61 46 72 176 50 78 57 80 83 355 150 165 172 176 175 180 187 179 170 163 155 153 149 143 142 108 81 32 27 21 18 20 33 37 36 34 43 60 69
86 109 260 258 287 82 131 150 102 94 71 39 125 24 27 46 46 64 97 93 138 163 171 189 181 181 186 186 175 170 170 170 166 159 154 131 90 24 19 11 9 21 42 41 37 37 42 50 61
1 265 239 250 139 75 88 126 110 144 113 62 33 104 90 48 57 49 121 107 135 161 168 207 192 184 195 195 188 196 194 185 180 173 163 155 48 17 14 11 22 36 51 43 36 39 45 55 67
335 253 246 223 140 129 123 101 142 155 116 119 190 119 87 47 60 85 123 102 137 150 170 207 197 191 197 202 201 200 197 196 190 182 176 182 12 13 15 22 30 44 46 37 34 37 44 54 61
241 278 239 211 168 154 158 136 177 182 136 124 179 151 86 84 99 101 107 103 124 154 180 199 199 202 195 207 210 207 207 204 198 193 193 198 41 24 16 28 31 38 42 36 34 32 40 44 52
294 268 297 297 170 189 178 159 206 187 166 128 90 188 130 71 124 145 154 139 145 166 180 184 205 207 195 203 205 213 217 216 213 217 215 223 257 9 359 12 19 30 36 32 32 28 28 27 24
289 265 233 227 200 208 153 175 180 224 131 112 175 188 165 234 243 229 200 171 154 172 170 176 200 199 200 217 216 211 214 217 223 221 222 217 221 235 318 351 358 360 10 14 22 24 20 20 12
176 244 226 199 201 209 165 194 173 200 232 166 145 122 221 257 270 235 207 187 201 209 195 188 204 202 195 208 216 218 221 218 223 228 226 222 215 231 313 5 346 2 4 354 2 8 6 356 351
256 258 221 360 201 218 174 220 180 219 204 194 166 212 252 259 241 200 187 196 208 221 218 216 201 214 207 204 211 212 225 225 224 228 227 223 204 211 298 307 312 321 331 350 352 345 346 352 340
217 269 105 185 197 235 204 222 220 245 244 285 233 175 311 273 220 210 217 230 232 230 229 227 223 219 210 211 206 205 214 219 212 217 213 203 182 225 278 287 295 308 313 327 333 340 337 335 324
250 241 236 181 207 207 225 254 236 238 249 166 212 235 251 164 182 198 210 223 230 236 241 239 233 226 212 205 198 206 210 212 209 197 193 194 204 215 242 274 278 293 305 316 321 329 331 330 321
242 221 220 215 209 225 258 247 258 226 201 215 231 224 177 163 173 210 219 239 241 243 248 249 241 222 204 197 200 209 215 216 224 227 224 221 220 210 232 254 268 274 294 305 316 329 338 330 329
2 272 251 228 229 232 231 248 217 200 191 186 168 152 164 182 214 289 271 276 274 275 267 245 225 204 196 201 203 203 207 216 222 229 222 218 223 230 247 249 249 294 292 325 327 338 336 337 333
275 277 257 241 233 235 216 239 229 162 167 170 172 169 180 214 259 261 256 266 273 271 263 233 213 194 188 190 192 191 208 201 208 224 230 233 239 238 245 202 231 285 292 328 333 333 326 325 319
254 255 262 106 172 190 195 263 155 176 181 191 191 192 187 248 264 274 284 285 276 255 231 195 180 177 183 187 183 175 155 160 159 154 156 151 162 173 168 132 115 25 334 340 331 328 332 324 320
214 263 232 256 199 156 203 249 163 184 198 206 208 207 202 195 246 271 269 267 242 193 160 160 165 173 177 175 172 166 155 153 142 141 136 133 133 110 84 39 4 334 327 325 344 348 345 340 347
249 226 252 251 174 217 212 249 164 195 210 216 211 208 204 198 218 231 223 198 168 156 155 162 167 168 169 173 165 153 159 146 141 146 137 134 126 112 48 5 25 31 29 28 17 4 356 355 354
281 283 263 257 154 259 240 252 249 198 211 217 214 210 205 195 199 190 181 161 159 159 159 163 161 152 151 151 150 152 146 141 143 137 139 131 116 109 97 86 73 63 47 36 28 18 7 357 355
247 259 258 260 233 243 265 263 256 218 218 221 220 214 203 188 173 171 164 161 155 158 158 157 152 150 146 147 147 150 150 159 149 130 120 109 102 92 83 71 57 42 30 19 12 8 7 3 2
236 243 254 260 266 243 274 269 255 239 214 221 223 212 198 188 174 164 158 161 157 151 150 150 150 151 153 154 156 155 141 131 123 118 113 105 96 83 67 52 41 30 21 14 10 5 3 3 2
246 236 248 262 258 262 171 286 281 199 210 216 208 197 189 180 170 162 158 158 162 159 158 159 158 155 150 142 141 141 136 130 122 116 104 96 83 66 51 38 28 19 13 8 7 5 2 359 357
249 85 220 238 255 274 256 264 276 170 215 211 201 193 186 180 169 159 155 160 159 158 158 157 154 149 145 144 142 140 134 126 120 112 101 82 64 49 37 28 20 14 10 7 3 358 356 353 350
129 111 110 235 260 256 240 234 265 205 230 200 190 188 177 171 165 157 157 155 152 149 148 147 146 143 141 140 136 134 128 120 111 100 88 74 57 41 28 17 8 3 0 358 355 353 350 346 343
199 179 232 238 209 255 235 221 251 180 185 190 182 183 178 171 166 163 160 157 153 152 151 150 149 144 145 145 140 134 126 118 111 105 88 65 37 19 12 8 3 358 353 350 347 344 341 336 333
201 196 198 237 215 249 67 232 235 42 105 176 180 180 177 173 171 169 165 162 161 158 157 157 158 154 150 148 143 137 132 129 121 104 78 47 21 10 2 356 349 344 338 335 332 332 332 328 325
190 222 231 18 180 283 219 241 197 164 168 168 170 175 180 177 176 173 171 170 166 164 164 166 162 158 155 153 148 142 135 124 107 79 44 21 9 353 340 333 328 329 333 329 330 329 329 324 323
208 156 166 196 215 233 244 251 232 204 192 180 179 182 181 180 178 178 178 176 174 174 172 170 170 168 164 160 153 143 133 122 101 71 36 349 332 329 326 322 323 330 336 332 330 330 327 325 325
179 202 217 207 227 248 273 239 141 204 190 187 187 186 183 181 181 180 182 182 182 180 178 177 176 172 168 163 156 153 147 138 129 29 334 326 321 322 325 325 330 336 337 331 330 328 326 324 322
219 209 205 206 188 231 288 257 122 97 178 186 189 186 186 185 183 183 186 186 185 186 183 181 180 177 173 170 170 167 166 171 213 305 318 321 322 329 334 331 330 333 331 329 328 326 324 321 317